Location: Bramevaque
(42.9773°N, 0.5757°E)
Time: 11:33:22
(UTC+00:00)

Cosmos 1825 Rocket - Pass Details

Date: 15 May 2026
Orbit: 598 x 622 km, 82.5° (Epoch: 6 June)

Event Time Altitude Azimuth Distance (km) Brightness Sun altitude
Rises 22:06:56 0° 347° (NNW) 2,872 8.3 -23.3°
Reaches altitude 10° 22:09:11 10° 343° (NNW) 1,968 7.2 -23.5°
Maximum altitude 22:13:25 54° 266° (W) 748 4.0 -23.8°
Enters shadow 22:13:52 51° 242° (WSW) 772 3.9 -23.8°
